Terminal Aerodrome Forecast
Issued by NWS Louisville, KY

Home | Current Version | Previous Version | Text Only | Print | Product List | Glossary On
Versions: 1 2 3 4 5 6 7 8 9 10 11 12 13 14 15 16 17 18
000
FTUS43 KLMK 171100
TAFBWG
TAF
KBWG 171121Z 1712/1812 VRB03KT 6SM BR VCSH BKN100
     FM171400 19007KT 5SM -SHRA BR VCTS BKN045CB
     FM171800 20008KT 6SM -SHRA BR VCTS BKN040CB
     FM172300 20006KT 6SM -SHRA BR OVC030=

USA.gov is the U.S. government's official web portal to all federal, state and local government web resources and services.